{"data":{"norad_id":64389,"intl_designator":"2025-127V","name":"STARLINK-34279","alt_names":[],"object_type":"PAYLOAD","status":"ACTIVE","operator":null,"country":"US","launch_date":"2025-06-13","launch_site_code":"AFETR","launch_vehicle":null,"mission":null,"orbit_class":"UNKNOWN","rcs_meters":null,"size_class":null,"mass_kg":null,"dimensions":null,"purposes":["comms"],"wikipedia_slug":null,"has_3d_model":false,"image_url":null,"decayed_at":null,"tle_current":{"epoch":"2026-09-19T23:10:41.678688Z","epoch_age_seconds":180623,"freshness":"STALE","line1":"1 64389U 25127V   26262.96576017  .00007174  00000+0  26991-3 0  9994","line2":"2 64389  43.0060 163.0858 0000956 273.3219  86.7523 15.27588114 72173","mean_motion":15.27588114,"eccentricity":9.56e-5,"inclination_deg":43.006,"raan_deg":163.0858,"arg_perigee_deg":273.3219,"mean_anomaly_deg":86.7523,"bstar":0.00026991,"rev_number":7217,"period_min":94.266248002503,"perigee_km":482.36887284413,"apogee_km":483.68072698027,"semimajor_km":6861.1617999122,"source":"CELESTRAK","updated_at":"2026-09-21T09:00:35.325834Z"}}}